Weather History for Brookings, OR

Change the Weather History Date:

Tuesday, September 2, 2014

  Actual Average Record
Temperature  
Mean Temperature 66 °F -  
Max Temperature 77 °F 72 °F 98 °F (1986)
Min Temperature 54 °F 52 °F 43 °F (1956)
Growing Degree Days 16 (Base 50)    
Moisture  
Dew Point 54 °F    
Average Humidity 68    
Maximum Humidity 97    
Minimum Humidity 38    
Precipitation  
Precipitation 0.00 in - - ()
Sea Level Pressure  
Sea Level Pressure 29.84 in    
Wind  
Wind Speed 3 mph (NW)    
Max Wind Speed 13 mph    
Max Gust Speed 20 mph    
Visibility 7 miles    
Events      
Averages and records for this station are not official NWS values.
T = Trace of Precipitation, MM = Missing Value Source: NWS Daily Summary

Daily Weather History Graph

Daily Weather History Graph

Search for Another Location

Airport:

Trip Planner

Search our weather history database for the weather conditions in past years. The results will help you decide how hot, cold, wet, or windy it might be!

Date:

Astronomy

Sep. 02, 2014 Rise Set
Actual Time 6:43 AM PDT 7:48 PM PDT
Civil Twilight 6:15 AM PDT 8:17 PM PDT
Nautical Twilight 5:40 AM PDT 8:51 PM PDT
Astronomical Twilight 5:04 AM PDT 9:27 PM PDT
Moon 2:40 PM PDT (9/2) No Moon Set
Length of Visible Light 14h 02m
Length of Day
13h 05m
First Quarter, 54% of the Moon is Illuminated
Sep 2
First Quarter
Sep 8
Full
Sep 15
Last Quarter
Sep 23
New
Oct 1
First Quarter

Hourly Weather History & Observations

Time (PDT) Temp. Dew Point Humidity Pressure Visibility Wind Dir Wind Speed Gust Speed Precip Events Conditions
12:56 AM 57.9 °F 54.9 °F 90% 29.86 in 7.0 mi NNE 3.5 mph - N/A   Clear
1:56 AM 55.9 °F 54.0 °F 93% 29.85 in 7.0 mi Calm Calm - N/A   Clear
2:56 AM 55.9 °F 54.0 °F 93% 29.85 in 7.0 mi Calm Calm - N/A   Clear
3:56 AM 54.9 °F 54.0 °F 97% 29.85 in 6.0 mi NNE 3.5 mph - N/A   Clear
4:56 AM 54.9 °F 54.0 °F 97% 29.84 in 6.0 mi Calm Calm - 0.00 in   Clear
5:56 AM 54.0 °F 52.9 °F 96% 29.84 in 6.0 mi Calm Calm - N/A   Clear
6:56 AM 54.9 °F 54.0 °F 97% 29.84 in 5.0 mi Calm Calm - N/A   Clear
7:56 AM 55.9 °F 54.9 °F 96% 29.86 in 5.0 mi Calm Calm - N/A   Clear
8:56 AM 61.9 °F 56.8 °F 84% 29.86 in 6.0 mi Calm Calm - N/A   Haze
9:56 AM 66.9 °F 57.9 °F 73% 29.86 in 6.0 mi Variable 3.5 mph - N/A   Haze
10:56 AM 68.0 °F 56.8 °F 67% 29.85 in 6.0 mi SW 4.6 mph - N/A   Haze
11:56 AM 68.9 °F 56.8 °F 65% 29.86 in 5.0 mi Variable 3.5 mph - N/A   Haze
12:56 PM 70.0 °F 56.8 °F 63% 29.86 in 6.0 mi Variable 6.9 mph - N/A   Haze
1:56 PM 72.0 °F 57.9 °F 61% 29.84 in 6.0 mi WSW 4.6 mph - N/A   Haze
2:56 PM 77.9 °F 59.0 °F 52% 29.82 in 7.0 mi Variable 4.6 mph - N/A   Clear
3:56 PM 75.9 °F 57.9 °F 54% 29.81 in 7.0 mi SE 4.6 mph - 0.00 in   Clear
4:56 PM 77.9 °F 54.0 °F 43% 29.80 in 8.0 mi NNW 12.7 mph 19.6 mph N/A   Clear
5:56 PM 74.8 °F 54.0 °F 48% 29.80 in 7.0 mi NW 11.5 mph - N/A   Clear
6:56 PM 74.8 °F 52.9 °F 46% 29.79 in 8.0 mi NW 10.4 mph - N/A   Clear
7:56 PM 74.8 °F 47.8 °F 38% 29.81 in 9.0 mi Variable 5.8 mph - N/A   Clear
8:56 PM 72.0 °F 47.8 °F 42% 29.85 in 10.0 mi NW 6.9 mph - N/A   Clear
9:56 PM 66.9 °F 48.9 °F 52% 29.87 in 10.0 mi Variable 3.5 mph - N/A   Clear
10:56 PM 66.9 °F 48.9 °F 52% 29.88 in 10.0 mi NNW 4.6 mph - N/A   Clear
11:56 PM 72.9 °F 48.9 °F 43% 29.87 in 10.0 mi Variable 5.8 mph - N/A   Clear